Weather History for KFFM - March, 2013

Change the Weather History Date:

Sunday, March 24, 2013

  Actual Average Record
Temperature  
Mean Temperature 21 °F -  
Max Temperature 32 °F 38 °F 72 °F (1968)
Min Temperature 10 °F 19 °F -23 °F (1974)
Degree Days  
Heating Degree Days 44    
Moisture  
Dew Point 15 °F    
Average Humidity 79    
Maximum Humidity 93    
Minimum Humidity 47    
Precipitation  
Precipitation 0.00 in - - ()
Sea Level Pressure  
Sea Level Pressure 30.11 in    
Wind  
Wind Speed 9 mph (North)    
Max Wind Speed 21 mph    
Max Gust Speed 26 mph    
Visibility 9 miles    
Events Snow    
Averages and records for this station are not official NWS values.
T = Trace of Precipitation, MM = Missing Value Source: NWS Daily Summary

Daily Weather History Graph

Daily Weather History Graph

Search for Another Location

Airport or City:

Trip Planner

Search our weather history database for the weather conditions in past years. The results will help you decide how hot, cold, wet, or windy it might be!

Date:

Astronomy

Mar. 24, 2013 Rise Set
Actual Time 7:19 AM CDT 7:43 PM CDT
Civil Twilight 6:49 AM CDT 8:13 PM CDT
Nautical Twilight 6:13 AM CDT 8:48 PM CDT
Astronomical Twilight 5:37 AM CDT 9:25 PM CDT
Moon 5:05 PM CDT (3/24) 5:38 AM CDT (3/24)
Length of Visible Light 13h 23m
Length of Day
12h 23m
Waxing Gibbous, 92% of the Moon is Illuminated
Mar 24
Waxing Gibbous
Mar 27
Full
Apr 2
Last Quarter
Apr 10
New
Apr 18
First Quarter

Hourly Weather History & Observations

Time (CDT) Temp. Windchill Dew Point Humidity Pressure Visibility Wind Dir Wind Speed Gust Speed Precip Events Conditions
12:13 AM 12.2 °F -0.2 °F 10.4 °F 92% 30.16 in 10.0 mi NW 9.2 mph - N/A   Clear
12:33 AM 12.2 °F 1.7 °F 8.6 °F 85% 30.16 in 10.0 mi NNW 6.9 mph - N/A   Clear
12:53 AM 12.2 °F 1.7 °F 10.4 °F 92% 30.16 in 10.0 mi NW 6.9 mph - N/A   Clear
1:13 AM 12.2 °F 1.7 °F 10.4 °F 92% 30.15 in 10.0 mi NNW 6.9 mph - N/A   Clear
1:33 AM 12.2 °F 2.9 °F 10.4 °F 92% 30.15 in 10.0 mi NNW 5.8 mph - N/A   Clear
1:53 AM 10.4 °F -1.5 °F 8.6 °F 92% 30.15 in 7.0 mi NNW 8.1 mph - N/A   Scattered Clouds
2:13 AM 12.2 °F 1.7 °F 10.4 °F 92% 30.15 in 5.0 mi North 6.9 mph - N/A   Scattered Clouds
2:33 AM 12.2 °F -0.2 °F 10.4 °F 92% 30.14 in 5.0 mi North 9.2 mph - N/A   Scattered Clouds
2:53 AM 12.2 °F 1.7 °F 10.4 °F 92% 30.13 in 7.0 mi NNW 6.9 mph - N/A   Clear
3:13 AM 12.2 °F 1.7 °F 10.4 °F 92% 30.13 in 7.0 mi NNW 6.9 mph - N/A   Scattered Clouds
3:33 AM 12.2 °F 1.7 °F 10.4 °F 92% 30.13 in 10.0 mi NNW 6.9 mph - N/A   Scattered Clouds
3:53 AM 12.2 °F 0.7 °F 8.6 °F 85% 30.13 in 10.0 mi NNW 8.1 mph - N/A   Clear
4:13 AM 12.2 °F -0.2 °F 10.4 °F 92% 30.12 in 10.0 mi NNW 9.2 mph - N/A   Clear
4:33 AM 14.0 °F 2.0 °F 10.4 °F 86% 30.12 in 10.0 mi NNW 9.2 mph - N/A   Scattered Clouds
4:53 AM 14.0 °F 1.2 °F 10.4 °F 86% 30.11 in 10.0 mi North 10.4 mph - N/A   Mostly Cloudy
5:13 AM 14.0 °F 1.2 °F 12.2 °F 93% 30.11 in 10.0 mi NNW 10.4 mph - N/A   Overcast
5:33 AM 15.8 °F 3.4 °F 12.2 °F 86% 30.10 in 10.0 mi NNW 10.4 mph - N/A   Overcast
5:53 AM 14.0 °F 3.9 °F 12.2 °F 93% 30.10 in 10.0 mi North 6.9 mph - N/A   Overcast
6:13 AM 15.8 °F 6.1 °F 12.2 °F 86% 30.11 in 10.0 mi North 6.9 mph - N/A   Overcast
6:33 AM 14.0 °F 8.2 °F 12.2 °F 93% 30.11 in 10.0 mi NW 3.5 mph - N/A   Overcast
6:53 AM 12.2 °F 1.7 °F 10.4 °F 92% 30.11 in 10.0 mi NW 6.9 mph - N/A   Overcast
7:13 AM 12.2 °F 1.7 °F 8.6 °F 85% 30.11 in 10.0 mi NNW 6.9 mph - N/A   Overcast
7:33 AM 12.2 °F 2.9 °F 10.4 °F 92% 30.12 in 10.0 mi NNW 5.8 mph - N/A   Overcast
7:53 AM 14.0 °F 6.5 °F 10.4 °F 86% 30.12 in 10.0 mi North 4.6 mph - N/A   Overcast
8:13 AM 14.0 °F 6.5 °F 12.2 °F 93% 30.12 in 7.0 mi NNW 4.6 mph - N/A Snow Light Snow
8:33 AM 15.8 °F 8.6 °F 12.2 °F 86% 30.12 in 7.0 mi NW 4.6 mph - N/A Snow Light Snow
8:53 AM 15.8 °F 8.6 °F 14.0 °F 93% 30.11 in 5.0 mi North 4.6 mph - N/A Snow Light Snow
9:13 AM 17.6 °F 12.3 °F 15.8 °F 93% 30.10 in 7.0 mi North 3.5 mph - N/A Snow Light Snow
9:33 AM 17.6 °F 12.3 °F 15.8 °F 93% 30.10 in 10.0 mi North 3.5 mph - N/A   Overcast
9:53 AM 19.4 °F 12.8 °F 15.8 °F 86% 30.10 in 10.0 mi North 4.6 mph - N/A   Overcast
10:13 AM 19.4 °F 12.8 °F 15.8 °F 86% 30.10 in 10.0 mi North 4.6 mph - N/A   Overcast
10:33 AM 21.2 °F 14.9 °F 15.8 °F 80% 30.10 in 10.0 mi North 4.6 mph - N/A   Overcast
10:53 AM 24.8 °F 19.1 °F 17.6 °F 74% 30.09 in 10.0 mi North 4.6 mph - N/A   Overcast
11:13 AM 26.6 °F 16.8 °F 17.6 °F 69% 30.09 in 10.0 mi NE 10.4 mph - N/A   Overcast
11:33 AM 28.4 °F 20.4 °F 19.4 °F 69% 30.09 in 10.0 mi NNE 8.1 mph - N/A   Mostly Cloudy
11:53 AM 30.2 °F 21.9 °F 19.4 °F 64% 30.09 in 10.0 mi NE 9.2 mph - N/A   Mostly Cloudy
12:13 PM 30.2 °F 21.3 °F 19.4 °F 64% 30.09 in 10.0 mi NE 10.4 mph 16.1 mph N/A   Overcast
12:33 PM 30.2 °F 21.9 °F 19.4 °F 64% 30.09 in 10.0 mi NE 9.2 mph - N/A   Overcast
12:53 PM 30.2 °F 22.6 °F 17.6 °F 60% 30.09 in 10.0 mi NE 8.1 mph - N/A   Scattered Clouds
1:13 PM 30.2 °F 22.6 °F 17.6 °F 60% 30.09 in 10.0 mi ENE 8.1 mph - N/A   Clear
1:33 PM 32.0 °F 26.4 °F 17.6 °F 55% 30.08 in 10.0 mi NNE 5.8 mph - N/A   Clear
1:53 PM 30.2 °F 22.6 °F 15.8 °F 55% 30.08 in 10.0 mi NNE 8.1 mph - N/A   Clear
2:13 PM 30.2 °F 21.9 °F 15.8 °F 55% 30.08 in 10.0 mi North 9.2 mph 16.1 mph N/A   Clear
2:33 PM 30.2 °F 19.8 °F 14.0 °F 51% 30.08 in 10.0 mi North 13.8 mph 19.6 mph N/A   Clear
2:53 PM 30.2 °F 19.8 °F 12.2 °F 47% 30.07 in 10.0 mi North 13.8 mph 18.4 mph N/A   Clear
3:13 PM 30.2 °F 20.2 °F 14.0 °F 51% 30.08 in 10.0 mi North 12.7 mph - N/A   Scattered Clouds
3:33 PM 30.2 °F 19.3 °F 14.0 °F 51% 30.08 in 10.0 mi North 15.0 mph - N/A   Clear
3:53 PM 28.4 °F 17.5 °F 14.0 °F 55% 30.08 in 10.0 mi North 13.8 mph 19.6 mph N/A   Clear
4:13 PM 28.4 °F 17.0 °F 15.8 °F 59% 30.09 in 10.0 mi North 15.0 mph - N/A   Scattered Clouds
4:33 PM 28.4 °F 18.0 °F 17.6 °F 64% 30.09 in 10.0 mi North 12.7 mph 21.9 mph N/A   Mostly Cloudy
4:53 PM 26.6 °F 16.2 °F 19.4 °F 74% 30.09 in 10.0 mi North 11.5 mph - N/A   Mostly Cloudy
5:14 PM 26.6 °F 14.7 °F 21.2 °F 80% 30.09 in 2.5 mi North 15.0 mph - N/A   Haze
5:33 PM 26.6 °F 13.8 °F 21.2 °F 80% 30.10 in 2.5 mi North 17.3 mph 25.3 mph N/A   Haze
5:53 PM 26.6 °F 12.7 °F 19.4 °F 74% 30.10 in 10.0 mi North 20.7 mph 26.5 mph N/A   Overcast
6:13 PM 26.6 °F 13.1 °F 19.4 °F 74% 30.10 in 10.0 mi NNW 19.6 mph 25.3 mph N/A   Mostly Cloudy
6:33 PM 26.6 °F 13.8 °F 19.4 °F 74% 30.10 in 10.0 mi NNW 17.3 mph 26.5 mph N/A   Scattered Clouds
6:53 PM 26.6 °F 13.4 °F 19.4 °F 74% 30.11 in 10.0 mi North 18.4 mph 21.9 mph N/A   Mostly Cloudy
7:13 PM 24.8 °F 12.4 °F 19.4 °F 80% 30.11 in 10.0 mi North 15.0 mph 24.2 mph N/A Snow Light Snow
7:33 PM 24.8 °F 12.4 °F 19.4 °F 80% 30.12 in 10.0 mi North 15.0 mph 23.0 mph N/A   Overcast
7:53 PM 24.8 °F 11.5 °F 19.4 °F 80% 30.12 in 10.0 mi North 17.3 mph 24.2 mph N/A   Overcast
8:12 PM 24.8 °F 11.9 °F 19.4 °F 80% 30.12 in 10.0 mi NNW 16.1 mph 23.0 mph N/A   Overcast
8:33 PM 24.8 °F 11.1 °F 19.4 °F 80% 30.13 in 10.0 mi NNW 18.4 mph 21.9 mph N/A Snow Light Snow
8:53 PM 24.8 °F 11.5 °F 19.4 °F 80% 30.12 in 10.0 mi North 17.3 mph 24.2 mph N/A   Overcast
9:13 PM 23.0 °F 9.2 °F 19.4 °F 86% 30.13 in 10.0 mi North 17.3 mph 25.3 mph N/A   Overcast
9:33 PM 23.0 °F 10.1 °F 19.4 °F 86% 30.13 in 10.0 mi North 15.0 mph 21.9 mph N/A   Overcast
9:53 PM 23.0 °F 11.1 °F 19.4 °F 86% 30.13 in 10.0 mi North 12.7 mph 20.7 mph N/A   Mostly Cloudy
10:13 PM 23.0 °F 11.7 °F 19.4 °F 86% 30.14 in 10.0 mi North 11.5 mph 19.6 mph N/A   Overcast
10:33 PM 23.0 °F 13.1 °F 19.4 °F 86% 30.14 in 10.0 mi North 9.2 mph - N/A Snow Light Snow
10:53 PM 23.0 °F 13.1 °F 19.4 °F 86% 30.14 in 10.0 mi North 9.2 mph - N/A   Overcast
11:13 PM 24.8 °F 14.0 °F 19.4 °F 80% 30.14 in 10.0 mi North 11.5 mph 17.3 mph N/A   Overcast
11:33 PM 24.8 °F 14.0 °F 19.4 °F 80% 30.14 in 10.0 mi North 11.5 mph 16.1 mph N/A   Overcast
11:53 PM 24.8 °F 15.3 °F 19.4 °F 80% 30.15 in 10.0 mi North 9.2 mph - N/A   Overcast